When you browse on this site, cookies collect data to enhance your experience and personalize the content and advertising you see.
Visit our Privacy Policy to learn more. By continuing to use the site, you agree to this use of cookies and data.
  • In Austria
  • List of Countries
  • For 7 days
  • Water Temperature
  • Weather Map
  • News
  • Weather Widgets
  • user-avatar
    Login

    Hourly Weather Energetik

    Today, 7 June, Sunday

    Time Temperature Precipitation Wind Pressure Humidity
    00:00 +16°C° 0 mm 1 mps 743 mmHg 61%
    01:00 +16°C° 0 mm 1 mps 743 mmHg 60%
    02:00 +15°C° 0 mm 1 mps 743 mmHg 61%
    03:00 +15°C° 0 mm 2 mps 743 mmHg 62%
    04:00 +14°C° 0 mm 2 mps 743 mmHg 66%
    05:00 +16°C° 0 mm 2 mps 743 mmHg 61%
    06:00 +18°C° 0 mm 3 mps 743 mmHg 56%
    07:00 +19°C° 0 mm 3 mps 744 mmHg 51%
    08:00 +21°C° 0 mm 3 mps 744 mmHg 45%
    09:00 +24°C° 0 mm 3 mps 744 mmHg 40%
    10:00 +25°C° 0 mm 4 mps 744 mmHg 34%
    11:00 +26°C° 0 mm 4 mps 743 mmHg 32%
    12:00 +27°C° 0 mm 4 mps 743 mmHg 29%
    13:00 +28°C° 0 mm 4 mps 743 mmHg 27%
    14:00 +27°C° 0 mm 4 mps 743 mmHg 27%
    15:00 +27°C° 0 mm 4 mps 743 mmHg 27%
    16:00 +27°C° 0 mm 3 mps 743 mmHg 27%
    17:00 +26°C° 0 mm 3 mps 743 mmHg 30%
    18:00 +26°C° 0 mm 2 mps 742 mmHg 32%
    19:00 +25°C° 0 mm 2 mps 742 mmHg 35%
    20:00 +23°C° 0 mm 2 mps 742 mmHg 36%
    21:00 +20°C° 0 mm 2 mps 742 mmHg 36%
    22:00 +20°C° 0 mm 1 mps 742 mmHg 36%
    23:00 +18°C° 0 mm 2 mps 742 mmHg 37%

    Tomorrow, 8 June, Monday

    Time Temperature Precipitation Wind Pressure Humidity
    00:00 +18°C° 0 mm 2 mps 742 mmHg 39%
    01:00 +17°C° 0 mm 2 mps 742 mmHg 40%
    02:00 +16°C° 0 mm 2 mps 742 mmHg 43%
    03:00 +16°C° 0 mm 2 mps 742 mmHg 46%
    04:00 +15°C° 0 mm 2 mps 742 mmHg 49%
    05:00 +17°C° 0 mm 2 mps 742 mmHg 46%
    06:00 +19°C° 0 mm 2 mps 742 mmHg 44%
    07:00 +21°C° 0 mm 3 mps 742 mmHg 41%
    08:00 +24°C° 0 mm 3 mps 743 mmHg 36%
    09:00 +26°C° 0 mm 4 mps 743 mmHg 31%
    10:00 +27°C° 0 mm 4 mps 743 mmHg 27%
    11:00 +28°C° 0 mm 4 mps 743 mmHg 26%
    12:00 +28°C° 0 mm 5 mps 743 mmHg 25%
    13:00 +29°C° 0 mm 5 mps 743 mmHg 24%
    14:00 +29°C° 0 mm 4 mps 743 mmHg 25%
    15:00 +28°C° 0 mm 4 mps 743 mmHg 26%
    16:00 +28°C° 0 mm 4 mps 743 mmHg 27%
    17:00 +27°C° 0 mm 4 mps 743 mmHg 31%
    18:00 +26°C° 0 mm 3 mps 743 mmHg 35%
    19:00 +25°C° 0 mm 3 mps 743 mmHg 38%
    20:00 +24°C° 0 mm 3 mps 743 mmHg 40%
    21:00 +21°C° 0 mm 3 mps 743 mmHg 41%
    22:00 +20°C° 0 mm 3 mps 743 mmHg 43%
    23:00 +19°C° 0 mm 2 mps 743 mmHg 44%

    Day after tomorrow, 9 June, Tuesday

    Time Temperature Precipitation Wind Pressure Humidity
    00:00 +19°C° 0 mm 2 mps 744 mmHg 45%
    01:00 +19°C° 0 mm 2 mps 744 mmHg 46%
    02:00 +18°C° 0 mm 2 mps 744 mmHg 46%
    03:00 +18°C° 0 mm 2 mps 744 mmHg 47%
    04:00 +18°C° 0 mm 3 mps 745 mmHg 47%
    05:00 +19°C° 0 mm 3 mps 745 mmHg 48%
    06:00 +20°C° 0 mm 3 mps 745 mmHg 49%
    07:00 +21°C° 0 mm 3 mps 745 mmHg 49%
    08:00 +22°C° 0 mm 4 mps 745 mmHg 45%
    09:00 +25°C° 0 mm 5 mps 746 mmHg 40%
    10:00 +27°C° 0 mm 5 mps 746 mmHg 35%
    11:00 +28°C° 0 mm 5 mps 746 mmHg 32%
    12:00 +29°C° 0 mm 4 mps 746 mmHg 28%
    13:00 +30°C° 0 mm 4 mps 746 mmHg 25%
    14:00 +30°C° 0 mm 4 mps 746 mmHg 24%
    15:00 +30°C° 0 mm 4 mps 746 mmHg 24%
    16:00 +30°C° 0 mm 4 mps 745 mmHg 23%
    17:00 +29°C° 0 mm 3 mps 745 mmHg 27%
    18:00 +28°C° 0 mm 3 mps 745 mmHg 31%
    19:00 +27°C° 0 mm 3 mps 745 mmHg 35%
    20:00 +25°C° 0 mm 3 mps 745 mmHg 39%
    21:00 +23°C° 0 mm 4 mps 745 mmHg 42%
    22:00 +21°C° 0 mm 4 mps 745 mmHg 46%
    23:00 +20°C° 0 mm 3 mps 745 mmHg 49%

    10 June, Wednesday

    Time Temperature Precipitation Wind Pressure Humidity
    00:00 +20°C° 0 mm 2 mps 746 mmHg 52%
    01:00 +19°C° 0 mm 2 mps 746 mmHg 54%
    02:00 +19°C° 0 mm 2 mps 746 mmHg 57%
    03:00 +18°C° 0 mm 2 mps 746 mmHg 59%
    04:00 +18°C° 0 mm 2 mps 746 mmHg 62%
    05:00 +19°C° 0 mm 2 mps 746 mmHg 59%
    06:00 +21°C° 0 mm 3 mps 746 mmHg 56%
    07:00 +24°C° 0 mm 3 mps 746 mmHg 53%
    08:00 +25°C° 0 mm 3 mps 746 mmHg 48%
    09:00 +27°C° 0 mm 3 mps 746 mmHg 43%
    10:00 +29°C° 0 mm 3 mps 746 mmHg 38%
    11:00 +29°C° 0 mm 3 mps 746 mmHg 37%
    12:00 +29°C° 0 mm 3 mps 746 mmHg 36%
    13:00 +29°C° 0 mm 3 mps 746 mmHg 36%
    14:00 +29°C° 0 mm 3 mps 746 mmHg 35%
    15:00 +30°C° 0 mm 3 mps 746 mmHg 34%
    16:00 +30°C° 0 mm 2 mps 746 mmHg 33%
    17:00 +29°C° 0 mm 2 mps 745 mmHg 37%
    18:00 +28°C° 0 mm 2 mps 745 mmHg 40%
    19:00 +28°C° 0 mm 2 mps 745 mmHg 44%
    20:00 +26°C° 0 mm 2 mps 745 mmHg 48%
    21:00 +24°C° 0 mm 3 mps 745 mmHg 51%
    22:00 +21°C° 0 mm 3 mps 745 mmHg 55%
    23:00 +21°C° 0 mm 2 mps 745 mmHg 56%

    11 June, Thursday

    Time Temperature Precipitation Wind Pressure Humidity
    00:00 +20°C° 0 mm 2 mps 745 mmHg 56%
    01:00 +19°C° 0 mm 2 mps 745 mmHg 56%
    02:00 +19°C° 0 mm 2 mps 745 mmHg 56%
    03:00 +19°C° 0 mm 1 mps 745 mmHg 56%
    04:00 +19°C° 0 mm 1 mps 745 mmHg 56%
    05:00 +20°C° 0 mm 1 mps 745 mmHg 51%
    06:00 +22°C° 0 mm 1 mps 745 mmHg 47%
    07:00 +24°C° 0 mm 1 mps 745 mmHg 42%
    08:00 +26°C° 0 mm 1 mps 745 mmHg 38%
    09:00 +27°C° 0 mm 1 mps 745 mmHg 33%
    10:00 +29°C° 0 mm 1 mps 745 mmHg 29%
    11:00 +30°C° 0 mm 2 mps 745 mmHg 27%
    12:00 +30°C° 0 mm 2 mps 744 mmHg 25%
    13:00 +31°C° 0 mm 2 mps 744 mmHg 24%
    14:00 +31°C° 0 mm 2 mps 744 mmHg 23%
    15:00 +32°C° 0 mm 2 mps 743 mmHg 23%
    16:00 +32°C° 0 mm 2 mps 743 mmHg 22%
    17:00 +31°C° 0 mm 2 mps 743 mmHg 25%
    18:00 +30°C° 0 mm 2 mps 742 mmHg 29%
    19:00 +29°C° 0 mm 2 mps 742 mmHg 32%
    20:00 +27°C° 0 mm 2 mps 742 mmHg 36%
    21:00 +25°C° 0 mm 2 mps 742 mmHg 40%
    22:00 +23°C° 0 mm 2 mps 742 mmHg 44%
    23:00 +21°C° 0 mm 2 mps 741 mmHg 49%

    12 June, Friday

    Time Temperature Precipitation Wind Pressure Humidity
    00:00 +22°C° 0 mm 1 mps 741 mmHg 53%
    01:00 +21°C° 0 mm 1 mps 741 mmHg 57%
    02:00 +21°C° 0 mm 1 mps 741 mmHg 59%
    03:00 +20°C° 0 mm 1 mps 740 mmHg 61%
    04:00 +18°C° 0 mm 0 mps 740 mmHg 62%
    05:00 +22°C° 0 mm 1 mps 740 mmHg 57%
    06:00 +24°C° 0 mm 1 mps 740 mmHg 51%
    07:00 +26°C° 0 mm 1 mps 740 mmHg 45%
    08:00 +27°C° 0 mm 2 mps 740 mmHg 39%
    09:00 +29°C° 0 mm 2 mps 740 mmHg 33%
    10:00 +30°C° 0 mm 3 mps 740 mmHg 27%
    11:00 +31°C° 0 mm 3 mps 740 mmHg 25%
    12:00 +33°C° 0 mm 3 mps 739 mmHg 23%
    13:00 +34°C° 0 mm 3 mps 739 mmHg 20%
    14:00 +33°C° 0 mm 4 mps 739 mmHg 22%
    15:00 +33°C° 0 mm 4 mps 738 mmHg 23%
    16:00 +33°C° 0 mm 5 mps 738 mmHg 25%
    17:00 +32°C° 0 mm 4 mps 737 mmHg 29%
    18:00 +30°C° 0 mm 3 mps 737 mmHg 34%
    19:00 +28°C° 0 mm 2 mps 737 mmHg 39%
    20:00 +27°C° 0 mm 2 mps 737 mmHg 42%
    21:00 +25°C° 0 mm 1 mps 736 mmHg 45%
    22:00 +23°C° 0 mm 1 mps 736 mmHg 48%
    23:00 +23°C° 0 mm 1 mps 736 mmHg 48%
    Show more